Weather History for Denver, CO

Change the Weather History Date:

Saturday, January 19, 2013

  Actual Average (KDEN) Record (KDEN)
Temperature  
Mean Temperature 44 °F 31 °F  
Max Temperature 57 °F 44 °F 68 °F (1986)
Min Temperature 32 °F 17 °F -20 °F (1883)
Degree Days  
Heating Degree Days 20 34  
Month to date heating degree days 651  
Since 1 July heating degree days 3119  
Cooling Degree Days 0 0  
Month to date cooling degree days 0  
Year to date cooling degree days 0  
Moisture  
Dew Point 14 °F    
Average Humidity 40    
Maximum Humidity 60    
Minimum Humidity 16    
Precipitation  
Precipitation 0.00 in 0.01 in 0.63 in (1990)
Month to date precipitation 0.25  
Year to date precipitation 0.25  
Snow  
Snow 0.00 in - - ()
Month to date snowfall  
Since 1 July snowfall  
Snow Depth -    
Sea Level Pressure  
Sea Level Pressure 30.14 in    
Wind  
Wind Speed 9 mph (SW)    
Max Wind Speed 14 mph    
Max Gust Speed -    
Visibility 11 miles    
Events      
T = Trace of Precipitation, MM = Missing Value Source: NWS Daily Summary

Daily Weather History Graph

Daily Weather History Graph

Search for Another Location

Airport:

Trip Planner

Search our weather history database for the weather conditions in past years. The results will help you decide how hot, cold, wet, or windy it might be!

Date:

Astronomy

Jan. 19, 2013 Rise Set
Actual Time 7:15 AM MST 5:02 PM MST
Civil Twilight 6:46 AM MST 5:32 PM MST
Nautical Twilight 6:13 AM MST 6:05 PM MST
Astronomical Twilight 5:41 AM MST 6:37 PM MST
Moon 11:30 AM MST (1/19) 12:52 AM MST (1/19)
Length of Visible Light 10h 46m
Length of Day
9h 47m
First Quarter, 58% of the Moon is Illuminated
Jan 19
First Quarter
Jan 26
Full
Feb 3
Last Quarter
Feb 10
New
Feb 17
First Quarter

Hourly Weather History & Observations

Time (MST) Temp. Windchill Dew Point Humidity Pressure Visibility Wind Dir Wind Speed Gust Speed Precip Events Conditions
12:05 AM 37.4 °F 29.3 °F 12.2 °F 36% 30.08 in 10.0 mi SW 12.7 mph - N/A   Clear
12:25 AM 37.4 °F 30.3 °F 12.2 °F 36% 30.07 in 10.0 mi SW 10.4 mph - N/A   Clear
12:45 AM 37.4 °F 30.8 °F 12.2 °F 36% 30.07 in 10.0 mi SW 9.2 mph - N/A   Clear
1:05 AM 39.2 °F 33.0 °F 12.2 °F 33% 30.07 in 10.0 mi SW 9.2 mph - N/A   Clear
1:25 AM 35.6 °F 27.5 °F 12.2 °F 38% 30.08 in 10.0 mi WSW 11.5 mph - N/A   Clear
1:45 AM 33.8 °F 24.8 °F 15.8 °F 48% 30.10 in 10.0 mi WSW 12.7 mph - N/A   Clear
2:05 AM 37.4 °F 30.8 °F 12.2 °F 36% 30.10 in 10.0 mi West 9.2 mph - N/A   Clear
2:25 AM 37.4 °F 30.3 °F 14.0 °F 38% 30.11 in 10.0 mi WSW 10.4 mph - N/A   Clear
2:45 AM 37.4 °F 29.8 °F 14.0 °F 38% 30.10 in 10.0 mi West 11.5 mph - N/A   Clear
3:05 AM 35.6 °F 26.6 °F 15.8 °F 44% 30.10 in 10.0 mi WSW 13.8 mph - N/A   Clear
3:25 AM 41.0 °F 33.5 °F 14.0 °F 33% 30.10 in 10.0 mi West 13.8 mph - N/A   Clear
3:44 AM 35.6 °F 27.5 °F 17.6 °F 48% 30.12 in 10.0 mi West 11.5 mph - N/A   Clear
4:05 AM 33.8 °F 25.8 °F 14.0 °F 44% 30.12 in 10.0 mi WSW 10.4 mph - N/A   Clear
4:25 AM 35.6 °F 28.0 °F 12.2 °F 38% 30.12 in 10.0 mi WSW 10.4 mph - N/A   Clear
4:46 AM 35.6 °F 30.7 °F 12.2 °F 38% 30.12 in 10.0 mi SW 5.8 mph - N/A   Clear
5:06 AM 37.4 °F 30.3 °F 10.4 °F 33% 30.13 in 10.0 mi WSW 10.4 mph - N/A   Clear
5:25 AM 39.2 °F 34.2 °F 8.6 °F 28% 30.14 in 10.0 mi West 6.9 mph - N/A   Clear
5:46 AM 35.6 °F 32.8 °F 10.4 °F 35% 30.16 in 10.0 mi NNW 3.5 mph - N/A   Clear
6:06 AM 33.8 °F - 14.0 °F 44% 30.16 in 10.0 mi Calm Calm - N/A   Clear
6:26 AM 37.4 °F 33.8 °F 10.4 °F 33% 30.17 in 10.0 mi West 4.6 mph - N/A   Clear
6:46 AM 41.0 °F 38.0 °F 8.6 °F 26% 30.18 in 10.0 mi West 4.6 mph - N/A   Clear
6:53 AM 39.2 °F 35.9 °F 8.6 °F 28% 30.19 in 10.0 mi WSW 4.6 mph - N/A   Clear
7:50 AM 32.0 °F - 15.8 °F 51% 30.21 in 50.0 mi Calm Calm - N/A   Clear
10:47 AM 50.0 °F - 10.4 °F 20% 30.25 in 50.0 mi East 4.6 mph - N/A   Clear
2:45 PM 57.2 °F - 10.4 °F 16% 30.16 in 50.0 mi SSE 5.8 mph - N/A   Clear
4:48 PM 46.4 °F 41.9 °F 21.2 °F 37% 30.16 in 50.0 mi ESE 9.2 mph - N/A   Partly Cloudy
5:50 PM 44.6 °F - 19.4 °F 37% 30.18 in 50.0 mi Calm Calm - N/A   Partly Cloudy
6:54 PM 44.6 °F 38.8 °F 10.4 °F 25% 30.17 in 20.0 mi West 11.5 mph - N/A   Partly Cloudy
7:50 PM 44.6 °F 41.4 °F 6.8 °F 21% 30.18 in 20.0 mi SSW 5.8 mph - N/A   Partly Cloudy
8:26 PM 37.4 °F 32.1 °F 17.6 °F 45% 30.19 in 10.0 mi SSW 6.9 mph - N/A   Clear
8:45 PM 35.6 °F 30.7 °F 17.6 °F 48% 30.18 in 10.0 mi South 5.8 mph - N/A   Clear
9:05 PM 35.6 °F 32.8 °F 17.6 °F 48% 30.18 in 10.0 mi South 3.5 mph - N/A   Clear
9:24 PM 35.6 °F 32.8 °F 17.6 °F 48% 30.17 in 10.0 mi SSW 3.5 mph - N/A   Clear
9:45 PM 35.6 °F 31.7 °F 17.6 °F 48% 30.17 in 10.0 mi SW 4.6 mph - N/A   Clear
10:05 PM 35.6 °F 30.7 °F 17.6 °F 48% 30.17 in 10.0 mi SSW 5.8 mph - N/A   Clear
10:25 PM 33.8 °F 28.6 °F 17.6 °F 52% 30.17 in 10.0 mi SSW 5.8 mph - N/A   Clear
10:45 PM 32.0 °F 28.7 °F 19.4 °F 60% 30.17 in 10.0 mi South 3.5 mph - N/A   Clear
11:05 PM 32.0 °F 25.6 °F 19.4 °F 60% 30.16 in 10.0 mi South 6.9 mph - N/A   Clear
11:25 PM 32.0 °F 24.8 °F 19.4 °F 60% 30.15 in 10.0 mi SSW 8.1 mph - N/A   Clear
11:45 PM 32.0 °F 27.5 °F 19.4 °F 60% 30.15 in 10.0 mi SSW 4.6 mph - N/A   Clear